QPF
0.00 0.00 0.00 0.00 0.00 0.00 0.00 0.00 0.00 0.00 0.00 0.00 0.00 0.00 0.00 0.00 0.00 0.00 0.00 0.00 0.01 0.01 0.02 0.02 0.01 0.01 0.01 0.01 0.00 0.01 0.02 0.03 0.04 0.07 0.07 0.09 0.09 0.09 0.08 0.07 0.07 0.08 0.06 0.08
0.00 0.00 0.00 0.00 0.00 0.00 0.00 0.00 0.00 0.00 0.00 0.00 0.00 0.00 0.00 0.00 0.00 0.00 0.00 0.00 0.00 0.00 0.00 0.00 0.00 0.00 0.01 0.01 0.01 0.00 0.01 0.02 0.03 0.04 0.06 0.08 0.09 0.08 0.08 0.07 0.08 0.08 0.07 0.09
0.00 0.00 0.00 0.00 0.00 0.00 0.00 0.00 0.00 0.00 0.00 0.00 0.00 0.00 0.00 0.00 0.00 0.00 0.00 0.00 0.00 0.00 0.00 0.00 0.00 0.00 0.00 0.00 0.00 0.00 0.01 0.03 0.04 0.03 0.06 0.09 0.10 0.09 0.11 0.13 0.13 0.09 0.07 0.06
0.00 0.00 0.00 0.00 0.00 0.00 0.00 0.00 0.00 0.00 0.00 0.00 0.00 0.00 0.00 0.00 0.00 0.00 0.00 0.00 0.00 0.00 0.00 0.00 0.00 0.00 0.00 0.00 0.00 0.00 0.01 0.02 0.03 0.04 0.04 0.06 0.09 0.11 0.15 0.18 0.20 0.12 0.08 0.06
0.00 0.00 0.00 0.00 0.00 0.00 0.00 0.00 0.00 0.00 0.00 0.00 0.00 0.00 0.00 0.00 0.00 0.00 0.00 0.00 0.00 0.00 0.00 0.00 0.00 0.01 0.01 0.00 0.00 0.00 0.01 0.02 0.03 0.04 0.04 0.05 0.06 0.09 0.12 0.14 0.14 0.12 0.09 0.07
0.00 0.00 0.00 0.00 0.00 0.00 0.00 0.00 0.00 0.00 0.00 0.00 0.00 0.00 0.00 0.00 0.00 0.00 0.00 0.00 0.00 0.00 0.00 0.00 0.00 0.01 0.02 0.00 0.00 0.01 0.01 0.02 0.02 0.03 0.03 0.05 0.06 0.07 0.06 0.08 0.09 0.08 0.07 0.07
0.00 0.00 0.00 0.00 0.00 0.00 0.00 0.00 0.00 0.00 0.00 0.00 0.00 0.00 0.00 0.00 0.00 0.00 0.00 0.00 0.00 0.00 0.00 0.00 0.00 0.01 0.03 0.01 0.00 0.00 0.01 0.01 0.02 0.03 0.03 0.04 0.06 0.06 0.05 0.05 0.07 0.07 0.06 0.05
0.00 0.00 0.00 0.00 0.00 0.00 0.00 0.00 0.00 0.00 0.00 0.00 0.00 0.00 0.00 0.00 0.00 0.00 0.00 0.00 0.00 0.00 0.00 0.00 0.00 0.02 0.03 0.01 0.00 0.00 0.00 0.00 0.01 0.02 0.04 0.05 0.05 0.03 0.03 0.03 0.04 0.05 0.06 0.05
0.00 0.00 0.00 0.00 0.00 0.00 0.00 0.00 0.00 0.00 0.00 0.00 0.00 0.00 0.00 0.00 0.00 0.00 0.00 0.00 0.00 0.00 0.00 0.00 0.00 0.03 0.01 0.00 0.00 0.00 0.00 0.00 0.00 0.01 0.03 0.03 0.04 0.03 0.02 0.03 0.03 0.03 0.06 0.07
0.00 0.00 0.00 0.00 0.00 0.00 0.00 0.00 0.00 0.00 0.00 0.00 0.00 0.00 0.00 0.00 0.00 0.00 0.00 0.00 0.00 0.00 0.00 0.00 0.00 0.00 0.00 0.00 0.00 0.00 0.00 0.00 0.00 0.01 0.01 0.01 0.03 0.03 0.02 0.02 0.02 0.02 0.03 0.04
0.00 0.00 0.00 0.00 0.00 0.00 0.00 0.00 0.00 0.00 0.00 0.00 0.00 0.00 0.00 0.00 0.00 0.00 0.00 0.00 0.00 0.00 0.00 0.00 0.00 0.00 0.00 0.00 0.00 0.00 0.00 0.00 0.00 0.00 0.00 0.01 0.01 0.01 0.01 0.01 0.02 0.03 0.03 0.03
0.00 0.00 0.00 0.00 0.00 0.00 0.00 0.00 0.00 0.00 0.00 0.00 0.00 0.00 0.00 0.00 0.00 0.00 0.00 0.00 0.00 0.00 0.00 0.00 0.00 0.00 0.00 0.00 0.00 0.00 0.00 0.00 0.00 0.00 0.00 0.00 0.00 0.01 0.01 0.01 0.02 0.02 0.03 0.03
0.00 0.00 0.00 0.00 0.00 0.00 0.00 0.00 0.00 0.00 0.00 0.00 0.00 0.00 0.00 0.00 0.00 0.00 0.00 0.00 0.00 0.00 0.00 0.00 0.00 0.00 0.00 0.00 0.00 0.00 0.00 0.00 0.00 0.00 0.00 0.00 0.00 0.00 0.00 0.01 0.03 0.03 0.03 0.03
0.00 0.00 0.00 0.00 0.00 0.00 0.00 0.00 0.00 0.00 0.00 0.00 0.00 0.00 0.00 0.00 0.00 0.00 0.00 0.00 0.00 0.00 0.00 0.00 0.00 0.00 0.00 0.00 0.00 0.00 0.00 0.00 0.00 0.00 0.00 0.00 0.00 0.01 0.01 0.02 0.02 0.02 0.03 0.03
0.00 0.00 0.00 0.00 0.00 0.00 0.00 0.00 0.00 0.00 0.00 0.00 0.00 0.00 0.00 0.00 0.00 0.00 0.00 0.00 0.00 0.00 0.00 0.00 0.00 0.00 0.00 0.00 0.00 0.00 0.00 0.00 0.00 0.00 0.00 0.00 0.01 0.01 0.01 0.01 0.02 0.02 0.02 0.03
0.00 0.00 0.00 0.00 0.00 0.00 0.00 0.00 0.00 0.00 0.00 0.00 0.00 0.00 0.00 0.00 0.00 0.00 0.00 0.00 0.00 0.00 0.00 0.00 0.00 0.00 0.00 0.00 0.00 0.00 0.00 0.00 0.00 0.00 0.00 0.00 0.01 0.01 0.01 0.01 0.02 0.02 0.02 0.02
0.00 0.00 0.00 0.00 0.00 0.00 0.00 0.00 0.00 0.00 0.00 0.00 0.00 0.00 0.00 0.00 0.00 0.00 0.00 0.00 0.00 0.00 0.00 0.00 0.00 0.00 0.00 0.00 0.00 0.00 0.01 0.01 0.00 0.01 0.00 0.00 0.01 0.01 0.00 0.01 0.01 0.01 0.02 0.02
0.00 0.00 0.00 0.00 0.00 0.00 0.00 0.00 0.00 0.00 0.00 0.00 0.00 0.00 0.00 0.00 0.00 0.00 0.00 0.00 0.01 0.00 0.00 0.00 0.00 0.00 0.01 0.00 0.00 0.00 0.01 0.01 0.01 0.01 0.01 0.01 0.01 0.01 0.01 0.02 0.02 0.01 0.02 0.02
0.00 0.00 0.00 0.00 0.00 0.00 0.00 0.00 0.00 0.00 0.00 0.00 0.00 0.00 0.00 0.00 0.00 0.00 0.00 0.00 0.00 0.00 0.00 0.00 0.00 0.01 0.01 0.00 0.01 0.01 0.01 0.01 0.01 0.01 0.02 0.02 0.03 0.02 0.03 0.05 0.03 0.02 0.02 0.02
0.00 0.00 0.00 0.00 0.00 0.00 0.00 0.00 0.00 0.00 0.00 0.00 0.00 0.00 0.00 0.00 0.00 0.00 0.00 0.00 0.00 0.00 0.00 0.00 0.00 0.01 0.01 0.01 0.01 0.01 0.01 0.02 0.03 0.03 0.03 0.04 0.05 0.07 0.07 0.06 0.04 0.03 0.02 0.02
0.00 0.00 0.00 0.00 0.00 0.00 0.00 0.00 0.00 0.00 0.00 0.00 0.00 0.00 0.00 0.00 0.00 0.00 0.00 0.00 0.00 0.00 0.00 0.01 0.01 0.01 0.01 0.02 0.02 0.02 0.03 0.05 0.06 0.05 0.04 0.06 0.08 0.09 0.09 0.08 0.06 0.04 0.02 0.01
0.00 0.00 0.00 0.00 0.00 0.00 0.00 0.00 0.00 0.00 0.00 0.00 0.00 0.00 0.00 0.00 0.00 0.00 0.00 0.00 0.00 0.01 0.01 0.01 0.01 0.02 0.02 0.04 0.05 0.07 0.07 0.07 0.07 0.08 0.09 0.10 0.10 0.10 0.08 0.05 0.03 0.02 0.02 0.02
0.00 0.00 0.00 0.00 0.00 0.00 0.00 0.00 0.00 0.01 0.01 0.00 0.00 0.00 0.00 0.00 0.00 0.00 0.00 0.00 0.01 0.01 0.01 0.01 0.01 0.03 0.04 0.05 0.06 0.07 0.09 0.10 0.09 0.08 0.08 0.10 0.09 0.07 0.05 0.04 0.03 0.03 0.03 0.03
0.01 0.00 0.00 0.01 0.00 0.01 0.01 0.01 0.01 0.01 0.01 0.01 0.01 0.00 0.01 0.01 0.01 0.01 0.01 0.01 0.01 0.01 0.01 0.01 0.02 0.03 0.05 0.05 0.05 0.05 0.07 0.08 0.09 0.09 0.10 0.09 0.08 0.07 0.06 0.04 0.04 0.03 0.03 0.04
0.01 0.01 0.01 0.01 0.01 0.01 0.01 0.01 0.02 0.01 0.02 0.02 0.02 0.01 0.01 0.01 0.01 0.01 0.01 0.01 0.01 0.01 0.02 0.02 0.03 0.04 0.05 0.06 0.05 0.06 0.06 0.05 0.05 0.06 0.06 0.05 0.04 0.04 0.04 0.04 0.05 0.04 0.04 0.04
0.02 0.02 0.02 0.02 0.01 0.01 0.02 0.02 0.01 0.01 0.01 0.01 0.02 0.01 0.02 0.02 0.01 0.01 0.02 0.02 0.02 0.02 0.02 0.03 0.03 0.04 0.06 0.07 0.07 0.07 0.08 0.08 0.08 0.07 0.06 0.06 0.05 0.04 0.04 0.04 0.04 0.04 0.04 0.04
MSLP
1009.73 1010.34 1010.89 1011.38 1011.80 1012.15 1012.44 1012.67 1012.80 1012.83 1012.73 1012.51 1012.16 1011.73 1011.27 1010.85 1010.53 1010.36 1010.38 1010.59 1010.97 1011.47 1012.05 1012.64 1013.21 1013.72 1014.17 1014.55 1014.88 1015.17 1015.42 1015.66 1015.89 1016.09 1016.28 1016.45 1016.60 1016.73 1016.87 1017.00 1017.14 1017.29 1017.44 1017.61
1010.47 1010.94 1011.34 1011.68 1011.98 1012.27 1012.54 1012.78 1012.95 1013.03 1012.96 1012.73 1012.34 1011.82 1011.24 1010.67 1010.22 1009.94 1009.89 1010.09 1010.50 1011.08 1011.77 1012.48 1013.16 1013.75 1014.24 1014.62 1014.93 1015.18 1015.41 1015.63 1015.86 1016.09 1016.32 1016.54 1016.72 1016.88 1017.00 1017.09 1017.17 1017.25 1017.34 1017.45
1011.11 1011.41 1011.63 1011.83 1012.02 1012.25 1012.52 1012.80 1013.05 1013.21 1013.20 1013.00 1012.60 1012.03 1011.34 1010.66 1010.07 1009.69 1009.57 1009.73 1010.16 1010.81 1011.58 1012.38 1013.13 1013.77 1014.29 1014.67 1014.95 1015.17 1015.37 1015.59 1015.83 1016.10 1016.37 1016.64 1016.86 1017.03 1017.14 1017.19 1017.21 1017.22 1017.25 1017.31
1011.55 1011.69 1011.76 1011.83 1011.95 1012.15 1012.45 1012.81 1013.17 1013.43 1013.53 1013.39 1013.00 1012.39 1011.63 1010.84 1010.14 1009.64 1009.43 1009.55 1009.97 1010.63 1011.44 1012.30 1013.09 1013.77 1014.29 1014.66 1014.92 1015.11 1015.29 1015.50 1015.76 1016.07 1016.39 1016.70 1016.96 1017.15 1017.24 1017.27 1017.24 1017.19 1017.16 1017.18
1011.77 1011.77 1011.73 1011.72 1011.80 1012.03 1012.39 1012.86 1013.35 1013.75 1013.96 1013.90 1013.54 1012.91 1012.09 1011.20 1010.38 1009.77 1009.46 1009.51 1009.88 1010.53 1011.35 1012.22 1013.03 1013.71 1014.22 1014.58 1014.81 1014.98 1015.14 1015.35 1015.63 1015.97 1016.33 1016.68 1016.97 1017.17 1017.27 1017.27 1017.20 1017.12 1017.05 1017.05
1011.76 1011.69 1011.59 1011.55 1011.65 1011.94 1012.40 1013.00 1013.63 1014.16 1014.48 1014.50 1014.17 1013.53 1012.65 1011.67 1010.74 1010.02 1009.61 1009.56 1009.87 1010.47 1011.26 1012.11 1012.92 1013.59 1014.09 1014.42 1014.62 1014.77 1014.92 1015.12 1015.41 1015.76 1016.15 1016.53 1016.85 1017.06 1017.15 1017.14 1017.05 1016.95 1016.86 1016.84
1011.58 1011.48 1011.38 1011.37 1011.53 1011.90 1012.48 1013.20 1013.95 1014.60 1015.01 1015.09 1014.79 1014.13 1013.21 1012.15 1011.13 1010.31 1009.79 1009.65 1009.89 1010.43 1011.17 1011.99 1012.77 1013.41 1013.89 1014.19 1014.38 1014.50 1014.63 1014.82 1015.10 1015.45 1015.85 1016.23 1016.56 1016.77 1016.86 1016.84 1016.75 1016.63 1016.54 1016.52
1011.31 1011.23 1011.17 1011.22 1011.47 1011.93 1012.61 1013.42 1014.26 1014.98 1015.44 1015.55 1015.26 1014.59 1013.63 1012.52 1011.44 1010.54 1009.95 1009.73 1009.89 1010.37 1011.06 1011.84 1012.58 1013.20 1013.65 1013.93 1014.09 1014.18 1014.29 1014.46 1014.71 1015.05 1015.43 1015.80 1016.11 1016.32 1016.40 1016.37 1016.27 1016.15 1016.06 1016.05
1011.02 1010.99 1011.00 1011.13 1011.45 1011.99 1012.73 1013.59 1014.45 1015.19 1015.66 1015.76 1015.46 1014.78 1013.81 1012.69 1011.58 1010.65 1010.02 1009.76 1009.87 1010.29 1010.93 1011.67 1012.37 1012.96 1013.38 1013.64 1013.78 1013.85 1013.92 1014.06 1014.28 1014.58 1014.92 1015.27 1015.55 1015.74 1015.81 1015.78 1015.67 1015.55 1015.47 1015.46
1010.78 1010.81 1010.89 1011.09 1011.47 1012.03 1012.77 1013.61 1014.44 1015.13 1015.56 1015.63 1015.32 1014.64 1013.69 1012.59 1011.52 1010.61 1009.98 1009.71 1009.80 1010.19 1010.79 1011.48 1012.14 1012.69 1013.08 1013.32 1013.43 1013.49 1013.54 1013.64 1013.83 1014.09 1014.39 1014.70 1014.96 1015.12 1015.18 1015.14 1015.04 1014.92 1014.84 1014.83
1010.64 1010.73 1010.86 1011.10 1011.48 1012.02 1012.70 1013.45 1014.18 1014.76 1015.11 1015.13 1014.80 1014.15 1013.26 1012.24 1011.25 1010.42 1009.85 1009.61 1009.70 1010.06 1010.62 1011.26 1011.87 1012.38 1012.74 1012.95 1013.05 1013.09 1013.12 1013.21 1013.38 1013.61 1013.89 1014.18 1014.42 1014.57 1014.63 1014.59 1014.49 1014.38 1014.29 1014.27
1010.60 1010.73 1010.89 1011.12 1011.47 1011.93 1012.49 1013.09 1013.67 1014.11 1014.35 1014.31 1013.98 1013.39 1012.59 1011.70 1010.84 1010.13 1009.66 1009.48 1009.58 1009.93 1010.43 1011.01 1011.55 1012.00 1012.32 1012.50 1012.59 1012.62 1012.67 1012.76 1012.94 1013.18 1013.47 1013.76 1014.01 1014.18 1014.25 1014.24 1014.15 1014.04 1013.95 1013.91
1010.66 1010.79 1010.95 1011.15 1011.42 1011.76 1012.16 1012.59 1012.98 1013.27 1013.39 1013.30 1012.98 1012.46 1011.80 1011.07 1010.38 1009.83 1009.48 1009.36 1009.48 1009.79 1010.23 1010.72 1011.17 1011.54 1011.80 1011.95 1012.03 1012.08 1012.15 1012.29 1012.50 1012.79 1013.13 1013.47 1013.77 1013.99 1014.11 1014.13 1014.08 1013.98 1013.88 1013.81
1010.75 1010.89 1011.02 1011.17 1011.34 1011.54 1011.77 1012.01 1012.21 1012.34 1012.36 1012.23 1011.94 1011.52 1011.01 1010.46 1009.96 1009.57 1009.34 1009.29 1009.41 1009.67 1010.02 1010.39 1010.73 1011.00 1011.19 1011.30 1011.37 1011.45 1011.58 1011.78 1012.08 1012.45 1012.88 1013.31 1013.69 1014.00 1014.20 1014.28 1014.27 1014.19 1014.08 1013.99
1010.85 1010.97 1011.08 1011.17 1011.24 1011.32 1011.39 1011.45 1011.48 1011.48 1011.40 1011.25 1011.01 1010.70 1010.34 1009.97 1009.65 1009.42 1009.29 1009.28 1009.39 1009.58 1009.82 1010.05 1010.26 1010.41 1010.51 1010.58 1010.65 1010.76 1010.95 1011.24 1011.64 1012.13 1012.67 1013.22 1013.73 1014.15 1014.44 1014.61 1014.66 1014.61 1014.50 1014.37
1010.90 1011.02 1011.10 1011.15 1011.15 1011.12 1011.06 1010.98 1010.88 1010.76 1010.63 1010.46 1010.27 1010.06 1009.85 1009.65 1009.49 1009.38 1009.34 1009.36 1009.43 1009.53 1009.64 1009.73 1009.80 1009.82 1009.83 1009.85 1009.91 1010.05 1010.31 1010.69 1011.20 1011.81 1012.48 1013.16 1013.79 1014.33 1014.73 1014.99 1015.10 1015.09 1014.99 1014.83
1010.86 1010.98 1011.07 1011.10 1011.06 1010.97 1010.82 1010.65 1010.45 1010.26 1010.08 1009.92 1009.78 1009.66 1009.56 1009.50 1009.46 1009.46 1009.47 1009.50 1009.52 1009.54 1009.52 1009.48 1009.40 1009.31 1009.23 1009.20 1009.24 1009.41 1009.71 1010.17 1010.77 1011.48 1012.25 1013.04 1013.78 1014.43 1014.94 1015.28 1015.46 1015.50 1015.41 1015.24
1010.72 1010.86 1010.96 1011.00 1010.97 1010.85 1010.67 1010.45 1010.21 1009.98 1009.77 1009.61 1009.51 1009.46 1009.45 1009.48 1009.54 1009.60 1009.65 1009.68 1009.66 1009.60 1009.49 1009.33 1009.14 1008.95 1008.79 1008.70 1008.73 1008.89 1009.22 1009.71 1010.36 1011.12 1011.96 1012.82 1013.64 1014.36 1014.95 1015.37 1015.61 1015.70 1015.64 1015.49
1010.47 1010.63 1010.76 1010.84 1010.84 1010.75 1010.58 1010.35 1010.10 1009.85 1009.64 1009.49 1009.41 1009.40 1009.46 1009.55 1009.67 1009.77 1009.85 1009.88 1009.84 1009.72 1009.54 1009.30 1009.04 1008.78 1008.56 1008.43 1008.42 1008.56 1008.88 1009.36 1010.01 1010.77 1011.62 1012.49 1013.33 1014.09 1014.72 1015.19 1015.50 1015.64 1015.63 1015.51
1010.11 1010.29 1010.47 1010.60 1010.66 1010.62 1010.49 1010.29 1010.06 1009.83 1009.63 1009.49 1009.42 1009.43 1009.52 1009.65 1009.80 1009.93 1010.03 1010.07 1010.03 1009.90 1009.69 1009.42 1009.12 1008.83 1008.58 1008.41 1008.36 1008.46 1008.72 1009.16 1009.74 1010.45 1011.25 1012.08 1012.89 1013.65 1014.29 1014.80 1015.15 1015.35 1015.41 1015.36
1009.68 1009.88 1010.10 1010.29 1010.41 1010.43 1010.37 1010.23 1010.04 1009.84 1009.66 1009.53 1009.48 1009.50 1009.59 1009.74 1009.91 1010.07 1010.19 1010.25 1010.23 1010.12 1009.93 1009.67 1009.38 1009.08 1008.81 1008.62 1008.53 1008.57 1008.77 1009.11 1009.60 1010.21 1010.90 1011.65 1012.40 1013.11 1013.75 1014.27 1014.67 1014.94 1015.08 1015.11
1009.23 1009.44 1009.69 1009.92 1010.10 1010.20 1010.21 1010.13 1010.00 1009.85 1009.71 1009.60 1009.56 1009.59 1009.68 1009.83 1010.01 1010.19 1010.33 1010.42 1010.44 1010.37 1010.23 1010.01 1009.76 1009.49 1009.23 1009.03 1008.90 1008.88 1008.99 1009.23 1009.59 1010.08 1010.65 1011.29 1011.95 1012.61 1013.22 1013.76 1014.20 1014.54 1014.77 1014.91
1008.84 1009.04 1009.29 1009.55 1009.78 1009.94 1010.02 1010.02 1009.96 1009.87 1009.77 1009.70 1009.67 1009.71 1009.80 1009.95 1010.13 1010.31 1010.48 1010.60 1010.66 1010.65 1010.57 1010.42 1010.22 1010.00 1009.77 1009.56 1009.42 1009.34 1009.36 1009.50 1009.74 1010.09 1010.54 1011.07 1011.64 1012.24 1012.83 1013.37 1013.86 1014.27 1014.60 1014.84
1008.57 1008.74 1008.99 1009.26 1009.51 1009.72 1009.86 1009.94 1009.95 1009.92 1009.87 1009.84 1009.84 1009.88 1009.98 1010.12 1010.30 1010.48 1010.66 1010.81 1010.91 1010.96 1010.93 1010.85 1010.71 1010.54 1010.35 1010.17 1010.00 1009.89 1009.85 1009.90 1010.04 1010.28 1010.62 1011.05 1011.55 1012.09 1012.66 1013.21 1013.74 1014.22 1014.63 1014.97
1008.50 1008.63 1008.85 1009.10 1009.37 1009.60 1009.79 1009.92 1009.99 1010.03 1010.04 1010.05 1010.08 1010.14 1010.24 1010.37 1010.53 1010.71 1010.89 1011.05 1011.17 1011.26 1011.29 1011.26 1011.19 1011.07 1010.93 1010.77 1010.62 1010.49 1010.41 1010.40 1010.47 1010.63 1010.88 1011.23 1011.67 1012.18 1012.73 1013.29 1013.85 1014.38 1014.86 1015.27
1008.69 1008.77 1008.94 1009.16 1009.40 1009.64 1009.85 1010.02 1010.14 1010.23 1010.30 1010.35 1010.41 1010.48 1010.58 1010.69 1010.83 1010.99 1011.15 1011.30 1011.43 1011.53 1011.60 1011.62 1011.60 1011.54 1011.45 1011.33 1011.20 1011.09 1011.00 1010.95 1010.98 1011.09 1011.29 1011.59 1011.99 1012.46 1012.99 1013.56 1014.13 1014.69 1015.20 1015.65
Thickness
5840 5835 5831 5837 5841 5840 5837 5833 5831 5835 5846 5841 5835 5834 5837 5839 5835 5830 5825 5822 5817 5814 5815 5811 5806 5802 5797 5791 5786 5781 5776 5772 5767 5764 5761 5757 5755 5756 5755 5754 5752 5751 5750 5750
5825 5825 5837 5841 5839 5836 5833 5829 5830 5835 5842 5838 5836 5835 5841 5841 5837 5836 5831 5826 5823 5820 5817 5812 5808 5804 5800 5794 5789 5784 5779 5776 5771 5768 5764 5761 5758 5758 5757 5755 5753 5751 5750 5750
5819 5830 5836 5832 5829 5827 5830 5830 5831 5829 5835 5839 5834 5830 5835 5841 5842 5840 5839 5836 5832 5826 5820 5815 5810 5807 5803 5798 5794 5790 5785 5780 5775 5772 5767 5764 5760 5757 5756 5754 5753 5752 5751 5751
5822 5831 5827 5825 5826 5829 5822 5837 5834 5830 5826 5828 5828 5818 5833 5839 5837 5838 5838 5838 5836 5833 5827 5821 5815 5811 5807 5804 5800 5794 5788 5782 5778 5773 5770 5765 5760 5756 5756 5755 5754 5753 5751 5751
5815 5823 5821 5819 5828 5833 5831 5837 5833 5830 5826 5822 5827 5819 5832 5840 5833 5839 5843 5843 5842 5839 5834 5826 5821 5817 5814 5810 5804 5797 5791 5784 5780 5776 5771 5766 5763 5761 5759 5757 5754 5753 5753 5752
5820 5828 5829 5830 5835 5836 5832 5829 5825 5827 5825 5803 5817 5813 5820 5840 5840 5844 5848 5847 5844 5842 5838 5832 5827 5821 5817 5813 5807 5800 5792 5785 5781 5777 5774 5769 5765 5762 5759 5756 5754 5753 5754 5753
5801 5814 5826 5832 5822 5825 5826 5814 5800 5796 5799 5804 5819 5811 5824 5844 5851 5850 5849 5849 5847 5844 5840 5833 5827 5822 5817 5813 5809 5803 5796 5788 5784 5780 5775 5772 5768 5764 5760 5758 5757 5754 5754 5754
5790 5795 5816 5825 5824 5820 5821 5821 5797 5787 5794 5808 5809 5809 5833 5851 5854 5855 5855 5854 5850 5846 5843 5837 5831 5826 5820 5816 5811 5805 5798 5791 5787 5782 5777 5773 5770 5767 5765 5761 5760 5757 5756 5755
5797 5798 5821 5826 5831 5828 5815 5818 5832 5813 5803 5798 5810 5820 5837 5850 5849 5851 5852 5850 5847 5846 5843 5839 5834 5829 5823 5818 5813 5808 5800 5794 5789 5784 5779 5774 5771 5768 5766 5762 5760 5759 5756 5754
5803 5792 5807 5816 5820 5820 5827 5826 5814 5804 5783 5781 5797 5806 5821 5832 5839 5845 5846 5846 5846 5845 5843 5840 5837 5831 5826 5821 5815 5810 5803 5796 5791 5786 5781 5777 5772 5768 5765 5762 5759 5757 5755 5753
5801 5787 5795 5803 5802 5806 5806 5808 5810 5808 5806 5788 5787 5807 5841 5838 5842 5843 5845 5847 5846 5845 5843 5840 5836 5833 5828 5823 5817 5810 5804 5797 5792 5787 5782 5778 5774 5770 5766 5762 5759 5757 5755 5752
5793 5789 5785 5797 5814 5820 5817 5814 5808 5792 5788 5795 5797 5812 5847 5846 5848 5846 5846 5846 5846 5846 5845 5841 5836 5831 5827 5822 5817 5810 5805 5799 5794 5789 5783 5778 5774 5770 5767 5764 5760 5758 5755 5752
5783 5776 5764 5774 5786 5798 5801 5809 5813 5810 5801 5794 5791 5808 5843 5843 5842 5844 5843 5842 5842 5841 5841 5839 5834 5829 5825 5821 5816 5812 5806 5801 5797 5790 5784 5779 5775 5771 5767 5764 5761 5758 5754 5752
5778 5773 5771 5773 5787 5797 5792 5799 5805 5802 5794 5792 5798 5812 5828 5832 5834 5837 5838 5838 5839 5837 5836 5834 5830 5826 5823 5819 5815 5811 5807 5803 5798 5791 5785 5779 5775 5771 5767 5764 5760 5757 5754 5751
5767 5763 5772 5784 5796 5798 5795 5796 5799 5797 5802 5799 5806 5810 5821 5830 5832 5833 5834 5834 5833 5832 5831 5830 5827 5824 5820 5816 5813 5810 5806 5801 5796 5790 5784 5779 5775 5771 5767 5763 5759 5756 5753 5750
5755 5755 5763 5766 5781 5785 5785 5794 5797 5797 5802 5804 5807 5811 5829 5832 5832 5828 5828 5827 5827 5828 5828 5828 5826 5823 5818 5815 5811 5807 5803 5799 5794 5788 5783 5779 5775 5770 5766 5762 5758 5754 5750 5747
5744 5743 5745 5753 5769 5768 5765 5787 5792 5795 5802 5802 5798 5809 5821 5819 5818 5820 5822 5823 5823 5825 5826 5825 5824 5821 5818 5815 5811 5805 5802 5797 5792 5786 5781 5777 5772 5768 5763 5760 5756 5751 5747 5744
5730 5731 5739 5748 5747 5732 5774 5799 5799 5794 5797 5804 5806 5810 5814 5813 5816 5818 5820 5819 5819 5821 5822 5822 5822 5819 5817 5815 5810 5805 5800 5794 5788 5783 5779 5774 5769 5764 5759 5754 5749 5746 5743 5739
5729 5724 5731 5738 5735 5746 5767 5780 5787 5782 5782 5798 5798 5801 5806 5810 5809 5810 5812 5813 5813 5815 5817 5818 5819 5818 5814 5811 5807 5801 5795 5790 5784 5779 5774 5770 5765 5760 5756 5750 5745 5741 5738 5734
5719 5720 5724 5728 5727 5733 5759 5774 5783 5778 5765 5788 5792 5792 5796 5799 5794 5798 5801 5803 5805 5807 5809 5809 5811 5810 5805 5803 5801 5795 5789 5784 5778 5774 5769 5765 5760 5755 5751 5746 5741 5736 5732 5729
5704 5707 5714 5720 5724 5744 5755 5765 5768 5751 5758 5777 5783 5785 5788 5787 5788 5789 5792 5793 5794 5796 5798 5800 5799 5798 5795 5794 5790 5785 5780 5775 5773 5769 5763 5757 5753 5748 5744 5740 5735 5731 5727 5723
5701 5706 5707 5716 5717 5727 5741 5751 5750 5750 5761 5768 5772 5776 5777 5777 5779 5780 5781 5782 5783 5784 5786 5787 5786 5784 5784 5783 5778 5772 5768 5766 5764 5759 5754 5749 5745 5741 5736 5731 5727 5723 5719 5715
5695 5701 5710 5711 5714 5719 5730 5735 5740 5746 5749 5755 5760 5765 5766 5766 5767 5768 5769 5770 5771 5772 5773 5774 5773 5770 5769 5770 5768 5761 5759 5758 5754 5749 5743 5738 5735 5731 5726 5722 5718 5715 5711 5709
5678 5686 5692 5694 5701 5709 5717 5723 5729 5735 5739 5745 5750 5754 5756 5755 5756 5755 5756 5756 5757 5759 5760 5761 5760 5757 5755 5756 5756 5753 5750 5748 5745 5739 5733 5729 5724 5720 5716 5713 5710 5707 5704 5700
5666 5673 5678 5680 5689 5697 5702 5709 5715 5722 5729 5733 5737 5740 5742 5743 5742 5742 5742 5742 5743 5744 5746 5747 5745 5743 5741 5742 5741 5740 5739 5737 5733 5728 5723 5719 5715 5711 5705 5701 5696 5694 5690 5688
5657 5663 5667 5672 5678 5684 5687 5696 5704 5708 5713 5718 5721 5724 5728 5730 5729 5730 5729 5730 5730 5730 5731 5731 5731 5729 5728 5728 5726 5726 5725 5724 5721 5717 5712 5709 5705 5700 5696 5691 5684 5677 5675 5670